STARLINK-2757, 48604

Orbit data source: Space-Track

STARLINK-2757, 48604 is a payload satellite owned by SpaceX/Seattle (US) in LEO that was launched on Sat, 15 May 2021 UTC via an FALCON 9 launch vehicle from the Air Force Eastern Test Range (AFETR). Payload-class satellites include a variety of spacecraft equipped with specific instruments for various scientific and technological missions. These include communications satellites like Starlink; space stations such as the ISS; scientific satellites like the Hubble; Earth observation satellites from companies like Planet Labs, Umbra, and HawkEye 360; GPS; miniature CubeSats for education and research; and military/defense satellites.

Loading next visibility...
Identifier
48604, 2021-041BD
Orbit
LEO
Country
Flag of USUS
Related business
Manufacturer
SpaceX/Seattle
Mission
Operational Commercial Communications
Bus & Motor
STARLINK, Unknown motor
Mass
260 kg wet, ~248 kg dry
Launch date (UTC)
2021-05-15 (5 years ago)
Launch vehicle
FALCON 9
Launch site
Air Force Eastern Test Range (AFETR)
Object type
Payload
Rocket body
Debris
Shape & HBR
Box + 1 Pan, 10.1 m
Radar Cross Section
13.562 m², Large (>1 m²)

Expand to show TLE details & history
Last TLE update: 17 hours ago

TLE from 17 hours ago
0 STARLINK-2757
1 48604U 21041BD  25348.91588462  .00004912  00000-0  34826-3 0  9997
2 48604  53.0546 162.1829 0001136  86.2237 273.8882 15.06418855253556
Epoch: 2025-12-14T21:58Z
TLE epoch observation values (Epoch: 2025-12-14T21:58:52.431Z)
Latitude
Longitude
108.6425°
Altitude
547.98 km
Speed
7.589 km/s
True Right ascension
10h 48m 43s
True Declination
0° 00' 00"
Sunlit
Object was in daylight at epoch
Visualization orbit readout
Latitude
Unknown
Longitude
Unknown
Altitude
Unknown
Speed
Unknown
Apparent Right ascension
Unknown
Apparent Declination
Unknown
Sunlit
N/A
Visualization observer readout
Local Sidereal Time
13:19:55
Azimuth
Unknown
Elevation
Unknown
Doppler factor
Unknown
Orbital elements
Apogee altitude
548.211 km
Perigee altitude
546.638 km
Semi-major axis
6,925.561 km
Eccentricity
0.00011
Inclination
53.0546°
RAAN
162.1829°
Arg. of periapsis
86.2237°
True anomaly
273.87521°
Mean anomaly
273.8882°
Eccentric anomaly
273.88171°
Mean motion
3.76583 °/min
Orbital period
95.6 mins
BSTAR
0.00034826
Loading maneuver chart data...
Computing Atmospheric mass density...
Loading historical data...
Loading historical data...
Loading historical data...
Loading historical data...
Loading historical data...
Loading historical data...
Loading historical data...

Documentation

Showing up to 5 results
|